Back to catalog

CZ-6A DEB

AlivePO
NORAD 54919·DEBRIS·🇨🇳 China

Launched Nov 11, 2022 from Taiyuan Satellite Launch Center

Loading…

Next Passes (next 24 hours)

TLE

FreshSource: Space-Track

Epoch: Sep 13, 2026, 16:43 UTC

1 54919U 22151RG  26256.69714285  .00007429  00000-0  11009-2 0  9997
2 54919  98.6227 328.0495 0066856   5.6400 354.5544 14.73908940199836

Track CZ-6A DEB in real time with AllMySat

Download on the App Store